WAT5852 KIAH-KJAX

Flight info

Callsign WAT5852
Flight time N/A
Altitude 37000
Route GUMBY3 GUSTI AWDAD SJI J2 DEFUN CABLO ZOOSS MARQO3
Aircraft B738/M-SDE2E3FGHIRWXY/LB1

Departure

Time 2026-05-01 14:54
Airport George Bush Intercontinental Airport (KIAH)

Arrival

Time N/A
Airport Jacksonville International Airport (KJAX)
Time Latitude Longitude Altitude Speed Heading
2026-05-01 14:35 29.98842 -95.35119 98 ft 0 kts 192°
2026-05-01 14:45 29.98843 -95.35119 96 ft 1 kts 192°
2026-05-01 14:46 29.98867 -95.35113 95 ft 4 kts 194°
2026-05-01 14:46 29.98898 -95.35090 95 ft 0 kts 270°
2026-05-01 14:48 29.98898 -95.35103 96 ft 6 kts 270°
2026-05-01 14:49 29.98900 -95.35206 96 ft 6 kts 271°
2026-05-01 14:49 29.98912 -95.35281 97 ft 1 kts 289°
2026-05-01 14:50 29.98915 -95.35293 96 ft 1 kts 288°
2026-05-01 14:50 29.98922 -95.35397 96 ft 8 kts 271°
2026-05-01 14:51 29.98933 -95.35459 98 ft 8 kts 304°
2026-05-01 14:51 29.99120 -95.35484 95 ft 15 kts 360°
2026-05-01 14:52 29.99222 -95.35485 97 ft 0 kts
2026-05-01 14:52 29.99223 -95.35485 97 ft 0 kts
2026-05-01 14:52 29.99309 -95.35482 93 ft 10 kts
2026-05-01 14:53 29.99341 -95.35435 93 ft 6 kts 85°
2026-05-01 14:53 29.99341 -95.35427 93 ft 0 kts 87°
2026-05-01 14:54 29.99344 -95.35308 94 ft 48 kts 89°
2026-05-01 14:54 29.99343 -95.34609 96 ft 124 kts 90°
2026-05-01 14:54 29.99357 -95.33394 329 ft 167 kts 85°
2026-05-01 14:54 29.99353 -95.32032 1254 ft 173 kts 85°
2026-05-01 14:55 29.99260 -95.30634 2255 ft 177 kts 92°
2026-05-01 14:55 29.99079 -95.29171 2800 ft 198 kts 95°
2026-05-01 14:55 29.98848 -95.27465 3039 ft 226 kts 97°
2026-05-01 14:55 29.98592 -95.25596 3388 ft 249 kts 98°
2026-05-01 14:56 29.98631 -95.23541 4065 ft 265 kts 76°
2026-05-01 14:56 29.98745 -95.21421 4735 ft 274 kts 108°
2026-05-01 14:56 29.98278 -95.19213 5381 ft 285 kts 106°
2026-05-01 14:56 29.97865 -95.17011 6516 ft 280 kts 103°
2026-05-01 14:57 29.97557 -95.14772 7343 ft 286 kts 102°
2026-05-01 14:57 29.96971 -95.10124 8933 ft 299 kts 102°
2026-05-01 14:57 29.96663 -95.07722 9678 ft 306 kts 102°
2026-05-01 14:58 29.96343 -95.05266 10362 ft 315 kts 102°
2026-05-01 14:58 29.95995 -95.02663 10581 ft 340 kts 102°
2026-05-01 14:58 29.95622 -94.99908 11068 ft 354 kts 102°
2026-05-01 14:58 29.95240 -94.97077 11736 ft 360 kts 102°
2026-05-01 14:59 29.94850 -94.94194 12388 ft 368 kts 103°
2026-05-01 14:59 29.94449 -94.91246 12996 ft 376 kts 103°
2026-05-01 14:59 29.94047 -94.88244 13692 ft 382 kts 101°
2026-05-01 14:59 29.93968 -94.85138 14278 ft 393 kts 90°
2026-05-01 15:00 29.94368 -94.78751 15443 ft 406 kts 87°
2026-05-01 15:00 29.94605 -94.75486 16041 ft 412 kts 87°
2026-05-01 15:00 29.94837 -94.72170 16590 ft 418 kts 87°
2026-05-01 15:01 29.95061 -94.68808 17158 ft 424 kts 87°
2026-05-01 15:01 29.95277 -94.65392 17731 ft 430 kts 87°
2026-05-01 15:01 29.95487 -94.61932 18281 ft 436 kts 87°
2026-05-01 15:01 29.95694 -94.58427 18792 ft 440 kts 87°
2026-05-01 15:02 29.95900 -94.54896 19330 ft 444 kts 88°
2026-05-01 15:02 29.96036 -94.52535 19646 ft 447 kts 88°
2026-05-01 15:02 29.96310 -94.47729 20388 ft 451 kts 87°
2026-05-01 15:02 29.96512 -94.44164 20958 ft 453 kts 87°
2026-05-01 15:03 29.96718 -94.40526 21506 ft 456 kts 87°
2026-05-01 15:03 29.96924 -94.36873 22040 ft 458 kts 86°
2026-05-01 15:03 29.97131 -94.33190 22562 ft 462 kts 86°
2026-05-01 15:03 29.97337 -94.29486 23075 ft 464 kts 86°
2026-05-01 15:04 29.97545 -94.25755 23570 ft 467 kts 86°
2026-05-01 15:04 29.97752 -94.22005 23967 ft 471 kts 86°
2026-05-01 15:04 29.97960 -94.18224 24383 ft 473 kts 86°
2026-05-01 15:04 29.98167 -94.14430 24816 ft 475 kts 86°
2026-05-01 15:05 29.98375 -94.10617 25229 ft 478 kts 86°
2026-05-01 15:05 29.98583 -94.06783 25618 ft 481 kts 86°
2026-05-01 15:05 29.98790 -94.02925 26000 ft 484 kts 86°
2026-05-01 15:05 29.98998 -93.99039 26377 ft 487 kts 86°
2026-05-01 15:06 29.99206 -93.95136 26752 ft 489 kts 86°
2026-05-01 15:06 29.99414 -93.91204 27116 ft 492 kts 86°
2026-05-01 15:06 29.99621 -93.87255 27502 ft 495 kts 86°
2026-05-01 15:06 29.99829 -93.83284 27865 ft 497 kts 86°
2026-05-01 15:07 30.00037 -93.79292 28226 ft 500 kts 86°
2026-05-01 15:07 30.00244 -93.75291 28619 ft 501 kts 86°
2026-05-01 15:07 30.00451 -93.71265 28945 ft 503 kts 86°
2026-05-01 15:07 30.00657 -93.67218 29277 ft 506 kts 86°
2026-05-01 15:08 30.00864 -93.63157 29599 ft 509 kts 87°
2026-05-01 15:08 30.01070 -93.59072 29922 ft 511 kts 87°
2026-05-01 15:08 30.01275 -93.54972 30218 ft 513 kts 87°
2026-05-01 15:08 30.01481 -93.50850 30503 ft 515 kts 87°
2026-05-01 15:09 30.01686 -93.46715 30784 ft 517 kts 87°
2026-05-01 15:09 30.01890 -93.42564 31051 ft 519 kts 87°
2026-05-01 15:09 30.02093 -93.38400 31312 ft 521 kts 87°
2026-05-01 15:09 30.02296 -93.34220 31565 ft 523 kts 87°
2026-05-01 15:10 30.02499 -93.30022 31811 ft 525 kts 87°
2026-05-01 15:10 30.02901 -93.21623 32494 ft 523 kts 87°
2026-05-01 15:10 30.03099 -93.17436 32879 ft 521 kts 88°
2026-05-01 15:11 30.03292 -93.13318 33225 ft 521 kts 88°
2026-05-01 15:11 30.03681 -93.04975 33838 ft 521 kts 88°
2026-05-01 15:11 30.03873 -93.00804 34125 ft 520 kts 88°
2026-05-01 15:12 30.04063 -92.96641 34376 ft 520 kts 88°
2026-05-01 15:12 30.04440 -92.88303 34877 ft 520 kts 88°
2026-05-01 15:12 30.04627 -92.84127 35124 ft 520 kts 88°
2026-05-01 15:13 30.05179 -92.71617 35859 ft 520 kts 88°
2026-05-01 15:14 30.05541 -92.63277 36361 ft 519 kts 89°
2026-05-01 15:14 30.05720 -92.59111 36606 ft 519 kts 89°
2026-05-01 15:14 30.06072 -92.50786 36968 ft 520 kts 89°
2026-05-01 15:15 30.06773 -92.33835 36970 ft 536 kts 89°
2026-05-01 15:16 30.07469 -92.16491 36965 ft 547 kts 89°
2026-05-01 15:18 30.08322 -91.94454 36969 ft 550 kts 89°
2026-05-01 15:19 30.08977 -91.76819 36981 ft 549 kts 89°
2026-05-01 15:19 30.09451 -91.63627 36986 ft 548 kts 89°
2026-05-01 15:20 30.09903 -91.50710 36986 ft 547 kts 89°
2026-05-01 15:21 30.10202 -91.41944 36980 ft 546 kts 89°
2026-05-01 15:21 30.10496 -91.33179 36982 ft 545 kts 89°
2026-05-01 15:22 30.10924 -91.20058 37010 ft 545 kts 90°
2026-05-01 15:22 30.11202 -91.11310 37017 ft 545 kts 90°
2026-05-01 15:23 30.11474 -91.02613 37017 ft 545 kts 90°
2026-05-01 15:23 30.11988 -90.93882 37009 ft 546 kts 80°
2026-05-01 15:24 30.13930 -90.85410 36981 ft 546 kts 72°
2026-05-01 15:24 30.16037 -90.77270 36979 ft 546 kts 73°
2026-05-01 15:25 30.18159 -90.68862 36980 ft 547 kts 73°
2026-05-01 15:25 30.20232 -90.60393 36980 ft 548 kts 73°
2026-05-01 15:26 30.22249 -90.52054 36980 ft 548 kts 74°
2026-05-01 15:26 30.23562 -90.46622 36993 ft 549 kts 74°
2026-05-01 15:27 30.25618 -90.38110 36998 ft 549 kts 74°
2026-05-01 15:28 30.28604 -90.25689 37000 ft 550 kts 74°
2026-05-01 15:28 30.30499 -90.17783 36995 ft 550 kts 74°
2026-05-01 15:29 30.33562 -90.04965 36987 ft 551 kts 74°
2026-05-01 15:30 30.37613 -89.87913 37004 ft 551 kts 74°
2026-05-01 15:31 30.43662 -89.62247 37011 ft 550 kts 74°
2026-05-01 15:32 30.47667 -89.45119 36997 ft 550 kts 75°
2026-05-01 15:34 30.53613 -89.19484 36991 ft 551 kts 75°